Regional Weather Roundup
Issued by NWS Goodland, KS

Home | Current Version | Previous Version | Text Only | Print | Product List | Glossary Off
Versions: 1 2 3 4 5 6 7 8 9 10 11 12 13 14 15 16 17 18 19 20 21 22 23 24 25 26 27 28 29 30 31 32 33 34 35 36 37 38 39 40 41 42 43 44 45 46 47 48 49 50

000
ASUS43 KGLD 211359
RWRGLD

GOODLAND FORECAST AREA HOURLY WEATHER ROUNDUP
NATIONAL WEATHER SERVICE GOODLAND KS
800 AM MDT THU AUG 21 2014

...OFFICIAL OBSERVATIONS...

CITY           SKY/WX    TMP DP  RH WIND       PRES   REMARKS
GOODLAND KS    MOSUNNY   70  60  70 NW10      29.97R
HILL CITY KS   PTSUNNY   77  65  66 NW3       29.85R
IMPERIAL NEB   MOSUNNY   73  60  63 NW10      29.92R
MCCOOK NEB     MOSUNNY   77  60  55 N7        29.87R
AKRON CO       SUNNY     67  55  65 NW13      30.04R
BURLINGTON CO  SUNNY     71  56  58 NW12      30.00R
LIMON CO       SUNNY     65  56  72 W7        30.10R
$$

...UNOFFICIAL OBSERVATIONS...

CITY           SKY/WX    TMP DP  RH WIND       PRES   REMARKS
COLBY KS       SUNNY     70  64  83 CALM      29.91R
LENORA KS        N/A     73  32  22 CALM        N/A
NORTON KS      MOSUNNY   73  64  73 CALM      29.84R
SHARON SPRINGS   N/A     72  60  64 CALM        N/A
WAKEENEY KS      N/A     79  59  50 MISG        N/A
KIT CARSON CO    N/A     73  57  57 MISG        N/A
YUMA CO          N/A     66  60  80 N8          N/A
$$



USA.gov is the U.S. government's official web portal to all federal, state and local government web resources and services.